Regional Weather Roundup
Issued by NWS Grand Forks, ND

Home | Current Version | Previous Version | Text Only | Print | Product List | Glossary Off
Versions: 1 2 3 4 5 6 7 8 9 10 11 12 13 14 15 16 17 18 19 20 21 22 23 24 25 26 27 28 29 30 31 32 33 34 35 36 37 38 39 40 41 42 43 44 45 46 47 48 49 50

000
ASUS43 KFGF 210410
RWRFGF
PRAIRIE TO PINES  WEATHER ROUNDUP
NATIONAL WEATHER SERVICE EASTERN NORTH DAKOTA/GRAND FORKS ND
1100 PM CDT FRI OCT 20 2017

 **SATELLITE DATA USED TO AUGMENT SKY COVER AT AUTOMATED STATIONS**
 *****  WEATHER ACROSS EASTERN NORTH DAKOTA  *****

CITY           SKY/WX    TMP DP  RH WIND       PRES   REMARKS
GRAND FORKS    FAIR      70  56  61 S17G31    29.37S
GRAND FRKS AFB FAIR      67  53  61 S22       29.36S
DEVILS LAKE    FAIR      66  54  65 S21       29.30S
FARGO          FAIR      68  55  63 S22G40    29.42S
WAHPETON ARPT  NOT AVBL
$$

 ***** WEATHER ACROSS CENTRAL AND WESTERN NORTH DAKOTA  *****

CITY           SKY/WX    TMP DP  RH WIND       PRES   REMARKS
BISMARCK       FAIR      65  53  65 S15       29.26R
MINOT          FAIR      64  49  57 SE9       29.18F
JAMESTOWN      FAIR      64  54  69 S16       29.33F
MINOT AFB      FAIR      51  44  75 SE8       29.16F
GARRISON         N/A     64  51  62 S18G25    29.19F
WILLISTON        N/A    N/A N/A N/A MISG      29.19R
DICKINSON      FAIR      57  35  43 SW14      29.22R
HETTINGER      FAIR      53  35  50 E3        29.28R
$$

 *****  OTHER AIRPORT OBSERVATIONS IN OUR AREA  *****

CITY           SKY/WX    TMP DP  RH WIND       PRES   REMARKS
WALHALLA       FAIR     N/A N/A N/A S14       29.30F
GRAFTON AIRPOR FAIR      66  54  63 S14G20    29.37F
VALLEY CITY AR FAIR      61  55  82 SE10      29.39F
CANDO          FAIR      57  55  94 SE10      29.29S
CAVALIER APRT  FAIR      66  55  68 S15       29.32F
GWINNER        CLEAR     68  57  68 S15G25    29.40F
ROLLA          FAIR      55  48  76 S9        29.28S
 ***** THE ABOVE OBSERVATIONS ARE NON NWS ARE NOT QUALITY
       CONTROLLED AND MAY MIS-REPORT RAIN FOR SNOW...
$$

  *****  WEATHER ACROSS NORTHERN MINNESOTA  *****

CITY           SKY/WX    TMP DP  RH WIND       PRES   REMARKS
FLAG ISLAND    FAIR      57  50  77 S18       29.46S
WARROAD        FAIR      64  54  68 SE13      29.46S
ROSEAU         FAIR      68  55  64 S15G21    29.44S
HALLOCK        FAIR      70  54  56 S20       29.37S
THF RVR FALLS  FAIR      69  53  56 S25       29.45S
BAUDETTE       FAIR      68  50  52 S20G30    29.51R
WASKISH        FAIR      70  50  49 S13G25    29.53R
CROOKSTON      FAIR      72  54  53 S29G39    29.41F
STEPHEN NDAWN    N/A     70  54  56 S18         N/A
GREENBUSH NDAW   N/A     70  54  56 S17         N/A
$$
  *****  WEATHER ACROSS CENTRAL AND WEST MINNESOTA  *****

CITY           SKY/WX    TMP DP  RH WIND       PRES   REMARKS
FOSSTON        FAIR      66  52  59 S25G32    29.49S
BEMIDJI        FAIR      67  50  54 S20G29    29.55S
PARK RAPIDS    FAIR      66  51  58 S18G31    29.57F
ELBOW LAKE     FAIR      64  55  71 SE22      29.53F
WADENA         FAIR      64  52  63 S15       29.57F
DETROIT LAKES  FAIR      66  54  63 S17G24    29.53S
MOORHEAD       FAIR      68  54  60 S24G35    29.45S
FERGUS FALLS   FAIR      64  55  72 S18G26    29.51S
MORRIS MN      MOCLDY    66  55  68 S20       29.53F
STAPLES        FAIR      64  48  55 S15G21    29.60F
$$
  *****  WEATHER ELSEWHERE ACROSS MINNESOTA  *****

CITY           SKY/WX    TMP DP  RH WIND       PRES   REMARKS
DULUTH         FAIR      63  44  50 S16       29.73S
INTRNTL FALLS  FAIR      68  46  45 S8        29.57S
ELY            FAIR      64  39  39 S15G22    29.70S
CLOQUET        FAIR      66  41  39 S14G21    29.72S
WHEATON        FAIR      66  55  68 SE18      29.49F
BRAINERD       FAIR      65  48  54 S15       29.64F
HIBBING        FAIR      64  42  44 S8G23     29.68S
ALEXANDRIA     FAIR      67  54  63 S22G29    29.59F
SAINT CLOUD    FAIR      65  51  60 S16G25    29.66F
MINNEAPOLIS    MOCLDY    68  52  56 S15G26    29.73S
$$

  *****  WEATHER ACROSS SOUTH DAKOTA  *****

CITY           SKY/WX    TMP DP  RH WIND       PRES   REMARKS
SIOUX FALLS    MOCLDY    70  59  68 S24G33    29.58S
BROOKINGS      FAIR      66  58  75 S18G31    29.54F
WATERTOWN      FAIR      65  58  78 S24       29.48F
HURON          FAIR      69  58  67 S15G28    29.42F
SISSETON         N/A     68  58  70 SE17G26   29.44F
ABERDEEN       FAIR      68  57  68 S21G30    29.38F
MITCHELL       FAIR      70  58  65 S21G31    29.47F
PIERRE         FAIR      59  53  80 SE7       29.35S
MOBRIDGE       FAIR      61  53  75 SE8       29.30R
RAPID CITY     FAIR      64  34  32 SW9       29.38R
$$

  *****  SOME WEATHER IN NEARBY STATES *****

CITY           SKY/WX    TMP DP  RH WIND       PRES   REMARKS
GLASGOW MT     LGT RAIN  49  39  68 W22G33    29.39R
GREAT FALLS MT CLOUDY    41  27  57 SW20G28   29.61R
CHEYENNE WY    MOCLDY    47  34  60 NW18G31   29.61F
SCOTTSBLUFF NE FAIR      57  41  55 NW3       29.51R
OMAHA NE       FAIR      69  56  62 S24G38    29.71F
DES MOINES IA  FAIR      63  52  67 S15       29.84S
DAVENPORT IA   FAIR      66  47  50 S14G28    29.98S
CHICAGO IL     CLOUDY    66  48  52 S13       30.05S
EAU CLAIRE WI  FAIR      65  43  44 S14       29.81S
LA CROSSE WI   FAIR      68  46  45 S17       29.86S
$$

  *****  SOME NATIONAL WEATHER *****

CITY           SKY/WX    TMP DP  RH WIND       PRES   REMARKS
LA GUARDIA NY  FAIR      66  42  41 NW10      30.20S
RALEIGH NC     FAIR      55  53  93 CALM      30.26S
ATLANTA GA     MOCLDY    62  47  57 E3        30.23R
NEW ORLEANS LA MOCLDY    75  73  93 E10       30.06F
OKLAHOMA CITY  MOCLDY    71  63  75 S14G23    29.86R
ALBUQUERQUE NM MOCLDY    64  32  30 S14       29.83R
SALT LAKE CITY FAIR      45  29  53 N7        29.96R
LOS ANGELES CA FAIR      65  56  72 NE7       29.92R
BOISE ID       MOCLDY    46  33  60 NW10      29.98R
SEATTLE WA     FAIR      47  42  83 S17       29.92R
$$

*** WEATHER ACROSS MANITOBA...SASKATCHEWAN AND ONTARIO ***
                ***ONTARIO***

CITY           SKY/WX    TMP DP  RH WIND       PRES   REMARKS
GERALDTON      MOCLDY    46  45  93 E5        29.82R
THUNDER BAY    PTCLDY    46  45  93 NE3       29.77R
SIOUX LOOKOUT  MOCLDY    63  46  55 S7        29.61R
TORONTO        PTCLDY    55  34  44 S5        30.17R
BIG TROUT LK   MOCLDY    39  32  75 E9G20     29.78F
PICKLE LAKE    NOT AVBL
DRYDEN         PTCLDY    66  48  52 S14       29.58R
KENORA         MOCLDY    66  50  55 S15G25    29.50R
$$
                *** MANITOBA***

CITY           SKY/WX    TMP DP  RH WIND       PRES   REMARKS
BRANDON        MOCLDY    50  45  81 E6        29.22R
DAUPHIN        MOCLDY    48  43  81 NW6       29.19R
ISLAND LAKE    CLOUDY    48  37  66 E21       29.48F
PILOT MOUND      N/A     59  50  72 S15G21      N/A
THE PAS        MOCLDY    43  37  81 E10       29.24F
THOMPSON       MOCLDY    37  34  87 E9G21     29.46F
WINNIPEG       MOCLDY    68  54  60 S30G39    29.30F
LYNN LAKE      CLOUDY    36  34  93 E13G25    29.43F
CHURCHILL      CLOUDY    36  30  80 SE23G33   29.84F
GILLAM         CLOUDY    34  30  86 E12G22    29.65F
$$
                ***SASKATCHEWAN***

CITY           SKY/WX    TMP DP  RH WIND       PRES   REMARKS
ESTEVAN        PTCLDY    48  34  57 E3        29.17S
KINDERSLEY     CLOUDY    45  36  70 NW17G28   29.34R
LLOYDMINSTER   LGT RAIN  41  39  93 NW17G24   29.35S
PRINCE ALBERT  MOCLDY    41  36  81 N5        29.26S
REGINA         MOCLDY    45  32  61 N6        29.16R
YORKTON        PTCLDY    52  39  62 S9        29.17R
N. BATTLEFORD  MOCLDY    46  37  71 NW14      29.31R
LA RONGE       MOCLDY    39  36  87 NE6       29.32R
SASKATOON      PTCLDY    41  36  81 N13       29.25R
SWIFT CURRENT  CLOUDY    50  36  57 W21G30    29.27R
$$
NOTE: THESE ARE AUTOMATED STATIONS WITH LIMITED QUALITY CONTROL
      "FAIR" INDICATES FEW OR NO CLOUDS BELOW 12,000 FEET WITH NO
      SIGNIFICANT WEATHER AND/OR OBSTRUCTIONS TO VISIBILITY.
      SKY/WX - SKY CONDITION AND SIGNIFICANT WEATHER.
      TMP - AIR TEMPERATURE.    DP   - DEWPOINT TEMPERATURE.
      RH  - RELATIVE HUMIDITY.  PRES - PRESSURE.
      HX  - HEAT INDEX.         WCI  - WIND CHILL INDEX.
$



USA.gov is the U.S. government's official web portal to all federal, state and local government web resources and services.